LKPR Weather Reports


Display with metric or nautical units.
time (UTC)temp
F
wind
direction
speed
MPH
gust
MPH
rain 1hr
in
rain 24hr
in
rain mn
in
humidity
%
barometer
mb
20260504031801 48 310 5.0 0.0 0.00 0.00 0.00 70
20260504030203 48 0 2.0 0.0 0.00 0.00 0.00 76 1013.0
20260504023202 48 230 5.0 0.0 0.00 0.00 0.00 81 1013.0
20260504021805 52 220 2.0 0.0 0.00 0.00 0.00 66
20260504020203 52 250 2.0 0.0 0.00 0.00 0.00 66 1013.0
20260504013202 54 80 3.0 0.0 0.00 0.00 0.00 62 1013.0
20260504011801 57 80 5.0 0.0 0.00 0.00 0.00 54
20260504010203 57 80 7.0 0.0 0.00 0.00 0.00 54 1013.0
20260504003203 54 340 5.0 0.0 0.00 0.00 0.00 62 1013.0
20260504001804 57 60 2.0 0.0 0.00 0.00 0.00 54
20260504000204 57 40 3.0 0.0 0.00 0.00 0.00 54 1013.0
20260503233203 57 80 3.0 0.0 0.00 0.00 0.00 54 1012.0
20260503231805 59 160 7.0 0.0 0.00 0.00 0.00 51
20260503230203 61 170 7.0 0.0 0.00 0.00 0.00 48 1012.0
20260503223203 61 170 9.0 0.0 0.00 0.00 0.00 48 1012.0
20260503221803 63 160 9.0 0.0 0.00 0.00 0.00 45
20260503220204 61 170 9.0 0.0 0.00 0.00 0.00 48 1012.0
20260503213202 63 160 10.0 0.0 0.00 0.00 0.00 45 1012.0
20260503211804 64 170 7.0 0.0 0.00 0.00 0.00 39
20260503210201 64 170 9.0 0.0 0.00 0.00 0.00 42 1012.0
20260503203202 66 160 10.0 0.0 0.00 0.00 0.00 39 1012.0
20260503201802 66 160 9.0 0.0 0.00 0.00 0.00 37
20260503200203 66 160 10.0 0.0 0.00 0.00 0.00 39 1012.0
20260503193203 68 150 13.0 0.0 0.00 0.00 0.00 34 1012.0
20260503191801 68 140 9.0 0.0 0.00 0.00 0.00 32
20260503190203 68 140 10.0 0.0 0.00 0.00 0.00 34 1012.0
20260503183203 70 150 12.0 0.0 0.00 0.00 0.00 30 1012.0
20260503181805 72 140 9.0 0.0 0.00 0.00 0.00 26
20260503180204 72 150 12.0 0.0 0.00 0.00 0.00 26 1012.0
20260503173203 72 140 12.0 0.0 0.00 0.00 0.00 26 1012.0
20260503171802 75 130 9.0 0.0 0.00 0.00 0.00 22
20260503170203 75 130 12.0 0.0 0.00 0.00 0.00 23 1012.0
20260503150203 79 0 8.0 0.0 0.00 0.00 0.00 19 1012.0
20260503140202 77 120 9.0 0.0 0.00 0.00 0.00 22 1013.0
20260503130203 79 0 6.0 0.0 0.00 0.00 0.00 21 1014.0
20260503120202 75 130 8.0 0.0 0.00 0.00 0.00 25 1015.0
20260503110202 75 150 8.0 0.0 0.00 0.00 0.00 23 1015.0
20260503100202 72 140 8.0 0.0 0.00 0.00 0.00 26 1016.0
20260503090202 70 150 8.0 0.0 0.00 0.00 0.00 32 1017.0
20260503080203 66 160 8.0 0.0 0.00 0.00 0.00 34 1017.0
20260503071800 64 150 5.0 0.0 0.00 0.00 0.00 42
20260503070203 64 150 7.0 0.0 0.00 0.00 0.00 42 1017.0
20260503060203 57 140 7.0 0.0 0.00 0.00 0.00 50 1017.0
20260503053202 55 130 9.0 0.0 0.00 0.00 0.00 54 1017.0
20260503051801 52 110 7.0 0.0 0.00 0.00 0.00 62
20260503050203 52 110 6.0 0.0 0.00 0.00 0.00 66 1017.0
20260503043202 50 0 2.0 0.0 0.00 0.00 0.00 61 1017.0
20260503041802 50 50 2.0 0.0 0.00 0.00 0.00 53
20260503040203 50 0 1.0 0.0 0.00 0.00 0.00 53 1017.0
20260503033203 50 0 2.0 0.0 0.00 0.00 0.00 53 1017.0